This is the latest recevied weather packets stored in our database for station/object KC3LDA. If no packets are shown the sender has not sent any weather packets the latest 10 day(s).
| Time | Temp. | Humidity | Pressure | Rain* | Wind** | Luminosity | Snow |
|---|---|---|---|---|---|---|---|
| 1777636107 | 9.44° C | 67% | 1010 hPa | 0 mm | - | 185 W/m² | - |
| 1777635802 | 9.44° C | 68% | 1010 hPa | 0 mm | - | 172 W/m² | - |
| 1777635499 | 9.44° C | 68% | 1009.9 hPa | 0 mm | - | 159 W/m² | - |
| 1777635195 | 9.44° C | 69% | 1009.8 hPa | 0 mm | - | 146 W/m² | - |
| 1777634892 | 8.89° C | 69% | 1010.2 hPa | 0 mm | - | 134 W/m² | - |
| 1777634589 | 8.89° C | 69% | 1010 hPa | 0 mm | - | 124 W/m² | - |
| 1777634286 | 8.89° C | 70% | 1010 hPa | 0 mm | - | 117 W/m² | - |
| 1777633982 | 8.89° C | 70% | 1009.8 hPa | 0 mm | - | 106 W/m² | - |
| 1777633679 | 8.89° C | 71% | 1009.6 hPa | 0 mm | - | 92 W/m² | - |
| 1777633378 | 8.89° C | 71% | 1009.7 hPa | 0 mm | - | 79 W/m² | - |
| 1777633075 | 8.89° C | 72% | 1009.7 hPa | 0 mm | - | 70 W/m² | - |
| 1777632771 | 8.33° C | 72% | 1009.6 hPa | 0 mm | - | 61 W/m² | - |
| 1777632467 | 8.33° C | 73% | 1009.7 hPa | 0 mm | - | 50 W/m² | - |
| 1777632164 | 7.78° C | 73% | 1009.5 hPa | 0 mm | - | 41 W/m² | - |
| 1777631861 | 7.78° C | 74% | 1009.3 hPa | 0 mm | - | 37 W/m² | - |
| 1777631560 | 7.78° C | 75% | 1009.5 hPa | 0 mm | - | 33 W/m² | - |
| 1777631257 | 7.22° C | 75% | 1009.4 hPa | 0 mm | - | 27 W/m² | - |
| 1777630954 | 7.22° C | 76% | 1009.3 hPa | 0 mm | - | 23 W/m² | - |
| 1777630649 | 6.67° C | 77% | 1009.3 hPa | 0 mm | - | 20 W/m² | - |
| 1777630347 | 7.22° C | 76% | 1009.1 hPa | 0 mm | - | 16 W/m² | - |
| 1777630044 | 7.22° C | 75% | 1009 hPa | 0 mm | - | 12 W/m² | - |
| 1777629742 | 7.22° C | 75% | 1009.1 hPa | 0 mm | - | 9 W/m² | - |
| 1777629438 | 7.78° C | 73% | 1009.1 hPa | 0 mm | - | 6 W/m² | - |
| 1777629135 | 7.78° C | 73% | 1008.9 hPa | 0 mm | - | 3 W/m² | - |
| 1777628830 | 7.78° C | 73% | 1008.7 hPa | 0 mm | - | 2 W/m² | - |
* Rain latest hour (hover to see other rain measurements)
** Current wind speed in m/s (hover to see current wind gust speed)